[[{"header":{"parameterUnit":"m.s-1","parameterCategory":1,"la1":30.2991,"la2":30.254,"lo1":-89.0895,"lo2":-89.0444,"dy":0.0017,"dx":0.0017,"nx":28,"ny":28,"refTime":"2025-02-04T03:00:00:Z","depth":0,"parameterNumber":2,"parameterNumberName":"U-component_of_WINDS"},"data":[0,0,0,0,0,0,0,0,0,0,0,0,0,0,0,0,0,0,0,0,0,0,0,0,0,0,0,0,0,0,0,0,0,0,0,0,0,0,0,0,0,0,0,0,0,0,0,0,0,0,0,0,0,0,0,0,0,0,0.1233,0.1234,0,0.1244,0.1244,0.1244,0.1258,0.1258,0.1258,0.1258,0.1268,0.1268,0.1268,0,0,0,0,0,0,0,0,0,0,0,0,0,0.1224,0.1224,0.1233,0.1234,0.1234,0.1244,0.1244,0.1244,0.1258,0.1258,0.1258,0.1258,0.1268,0.1268,0.1268,0,0,0,0,0,0,0,0,0,0,0,0,0,0.123,0.1224,0.1233,0.1242,0.1242,0.1244,0.1244,0.1244,0.1258,0.1258,0.1258,0.1258,0.1268,0.1268,0.1268,0.1262,0,0,0.1268,0.1268,0,0,0,0,0,0,0,0,0.123,0.1231,0.124,0.1241,0.1242,0.125,0.1244,0.125,0.1257,0.1252,0.1258,0.1259,0.1262,0.1262,0.1263,0.1263,0.1263,0.1268,0.1268,0.1268,0.1269,0,0,0,0,0,0,0,0.1229,0.123,0.1238,0.124,0.1241,0.1244,0.1246,0.1245,0.1255,0.1252,0.1253,0.1254,0.1262,0.1263,0.1264,0.1263,0.1268,0.1268,0.1269,0.1269,0.1257,0.1256,0,0,0,0,0,0,0.1228,0.123,0.1237,0.1238,0.1237,0.1244,0.1246,0.1247,0.1255,0.1256,0.1254,0.1255,0.1263,0.1264,0.1264,0.1257,0.1268,0.1269,0.1269,0.1257,0.1256,0.1256,0,0,0,0,0,0,0.1228,0.1228,0.1237,0.1234,0.1235,0.1244,0.1245,0.1247,0.1248,0.1256,0.1258,0.1254,0.1263,0.1264,0.1262,0.1257,0.1269,0.1269,0.1257,0.1257,0.1256,0.1242,0,0,0,0,0,0,0.1227,0.1228,0.1226,0.1234,0.1236,0.1235,0.1245,0.1247,0.1248,0.125,0.1256,0.1258,0.1264,0.1262,0.1262,0.1258,0.1269,0.1258,0.1257,0.1256,0.1243,0.1241,0.124,0,0,0,0,0,0.1227,0.1222,0.1226,0.1227,0.1234,0.1235,0.1236,0.1243,0.1248,0.1246,0.1251,0.1257,0.1258,0.1262,0.1262,0.1257,0.1258,0.1257,0.1257,0.1244,0.1242,0.124,0,0,0,0,0,0,0.1214,0.1223,0.1228,0.1226,0.1229,0.1237,0.1235,0.1241,0.1243,0.1244,0.1253,0.1254,0.1251,0.1254,0.1258,0.1251,0.1259,0.1258,0.1249,0.1247,0.1246,0.1245,0.1269,0,0,0,0,0,0.1211,0.1211,0.122,0.1217,0.1218,0.1226,0.1227,0.1232,0.1237,0.1238,0.1243,0.1246,0.1247,0.1247,0.1249,0.1244,0.1245,0.1241,0.1239,0.1238,0.1237,0.1233,0.1231,0.1253,0.1253,0.1253,0,0,0.1204,0.1209,0.1209,0.1214,0.1218,0.1218,0.1227,0.1227,0.1227,0.1238,0.1236,0.124,0.1244,0.1241,0.1239,0.1243,0.1231,0.1237,0.1235,0.1235,0.1232,0.123,0.1228,0.1253,0.1253,0.1253,0,0,0.1192,0.1196,0.1194,0.1197,0.1202,0.1208,0.1207,0.1214,0.1217,0.1215,0.1223,0.1223,0.1224,0.1227,0.1228,0.1216,0.1222,0.1216,0.1207,0.1203,0.1202,0.12,0.1195,0.1193,0.1215,0.1215,0.1215,0,0.1183,0.1184,0.1192,0.1191,0.1193,0.1203,0.12,0.1202,0.1207,0.1208,0.1212,0.1214,0.1218,0.1214,0.1211,0.1212,0.1211,0.1215,0.1201,0.12,0.1199,0.1194,0.1192,0.1215,0.1215,0.1215,0.1215,0,0.1172,0.1172,0.117,0.1174,0.1176,0.1174,0.1181,0.1181,0.1186,0.1191,0.1189,0.1193,0.1195,0.1195,0.12,0.1192,0.1194,0.12,0.1207,0.1196,0.1191,0.1189,0.1214,0.1214,0.1214,0.1214,0,0,0.1152,0.1161,0.116,0.1161,0.1168,0.1168,0.1166,0.1168,0.1167,0.1171,0.1169,0.1169,0.1174,0.1176,0.1181,0.1178,0.1167,0.1184,0.1185,0.118,0.1157,0.1152,0.115,0.1171,0.1171,0.1171,0.1157,0,0.114,0.1138,0.1145,0.1141,0.114,0.115,0.1148,0.1151,0.1155,0.1155,0.1159,0.1159,0.1166,0.1167,0.1165,0.1169,0.1163,0.117,0.1169,0.1168,0.1166,0.1148,0.1143,0.1129,0.1155,0.1155,0.1155,0,0.1127,0.1129,0.1124,0.113,0.113,0.1128,0.113,0.113,0.1134,0.1137,0.1138,0.1144,0.1142,0.115,0.1146,0.1151,0.1151,0.1153,0.1152,0.1152,0.116,0.1146,0.1125,0.1123,0.1152,0.1152,0.1152,0,0.1111,0.1113,0.111,0.1112,0.1118,0.1117,0.1119,0.1123,0.1124,0.1125,0.1125,0.1127,0.1127,0.1128,0.1133,0.1139,0.1129,0.1137,0.113,0.113,0.1128,0.1127,0.1106,0.1129,0.1129,0.1129,0.1129,0,0.1097,0.1094,0.1103,0.1102,0.1098,0.1106,0.1102,0.1105,0.1108,0.1107,0.1115,0.1113,0.1122,0.1121,0.1125,0.1121,0.1121,0.1123,0.1124,0.1122,0.1122,0.1121,0.1122,0.1128,0.1128,0.1128,0.1129,0,0.1079,0.1085,0.1083,0.1089,0.1091,0.1087,0.1093,0.1091,0.1095,0.1093,0.1093,0.11,0.1099,0.1105,0.1106,0.1109,0.1102,0.1105,0.11,0.1101,0.1094,0.1094,0.107,0.1067,0.1093,0.1093,0.1092,0,0.1069,0.1067,0.1072,0.1072,0.1074,0.1074,0.1074,0.1082,0.1082,0.1085,0.1083,0.1082,0.1083,0.1081,0.1085,0.1085,0.1088,0.108,0.1088,0.1085,0.1087,0.1086,0.1086,0.1078,0.1077,0.1077,0.1077,0,0.105,0.1054,0.1054,0.1055,0.1055,0.1057,0.1059,0.1058,0.1066,0.1065,0.1065,0.1065,0.1065,0.1064,0.1065,0.1067,0.1073,0.1074,0.1073,0.107,0.1067,0.1067,0.1095,0.1075,0.1075,0.1075,0.1075,0.1075,0.1035,0.1033,0.1037,0.1037,0.1039,0.104,0.1039,0.1043,0.1042,0.1043,0.1048,0.1046,0.1048,0.105,0.1051,0.105,0.1054,0.1051,0.1051,0.105,0.1048,0.1068,0.105,0.105,0.105,0.105,0.105,0,0.1016,0.1019,0.1019,0.1021,0.1021,0.1027,0.1029,0.1028,0.1026,0.1028,0.1028,0.1027,0.1026,0.1031,0.103,0.1028,0.103,0.1027,0.1027,0.1027,0.1045,0.1046,0.1025,0.1025,0.1025,0.1025,0.1025,0.1025,0.1006,0.1003,0.1006,0.1003,0.1006,0.1004,0.1005,0.1006,0.1007,0.1006,0.1005,0.1008,0.1011,0.101,0.101,0.1011,0.101,0.1006,0.1008,0.1024,0.1026,0.1029,0.103,0.1006,0.1006,0.099,0.099,0.099]},{"header":{"parameterUnit":"m.s-1","parameterCategory":1,"la1":30.2991,"la2":30.254,"lo1":-89.0895,"lo2":-89.0444,"dy":0.0017,"dx":0.0017,"nx":28,"ny":28,"refTime":"2025-02-04T03:00:00:Z","depth":0,"parameterNumber":3,"parameterNumberName":"V-component_of_WINDS"},"data":[0,0,0,0,0,0,0,0,0,0,0,0,0,0,0,0,0,0,0,0,0,0,0,0,0,0,0,0,0,0,0,0,0,0,0,0,0,0,0,0,0,0,0,0,0,0,0,0,0,0,0,0,0,0,0,0,0,0,1.2309,1.2309,0,1.2293,1.2293,1.2293,1.2279,1.2278,1.2278,1.2278,1.2261,1.2261,1.226,0,0,0,0,0,0,0,0,0,0,0,0,0,1.2327,1.2326,1.2309,1.2309,1.2309,1.2293,1.2293,1.2293,1.2279,1.2278,1.2278,1.2278,1.2261,1.2261,1.226,0,0,0,0,0,0,0,0,0,0,0,0,0,1.2316,1.2326,1.2309,1.23,1.2299,1.2293,1.2293,1.2293,1.2279,1.2278,1.2278,1.2278,1.2261,1.2261,1.226,1.2263,0,0,1.2259,1.2259,0,0,0,0,0,0,0,0,1.2316,1.2315,1.2301,1.23,1.2299,1.2288,1.2293,1.2283,1.2279,1.2286,1.2278,1.2278,1.227,1.2269,1.2266,1.2262,1.2261,1.2259,1.2259,1.2259,1.2258,0,0,0,0,0,0,0,1.2317,1.2316,1.2303,1.2301,1.23,1.2296,1.2294,1.2291,1.228,1.2286,1.2285,1.2283,1.2269,1.2267,1.2266,1.2261,1.2259,1.2259,1.2258,1.2258,1.2258,1.2258,0,0,0,0,0,0,1.2319,1.2316,1.2303,1.2302,1.2307,1.2296,1.2294,1.2292,1.228,1.2278,1.2283,1.2282,1.2268,1.2266,1.2265,1.2268,1.2259,1.2258,1.2258,1.2258,1.2258,1.2259,0,0,0,0,0,0,1.232,1.2318,1.2304,1.2309,1.2307,1.2296,1.2293,1.2291,1.2289,1.2278,1.2276,1.2283,1.2268,1.2266,1.2264,1.2267,1.2258,1.2257,1.2258,1.2258,1.2258,1.2272,0,0,0,0,0,0,1.232,1.2319,1.2319,1.2309,1.2307,1.2303,1.2294,1.2291,1.2288,1.2287,1.2277,1.2275,1.2267,1.2264,1.2263,1.2266,1.2257,1.2257,1.2258,1.2258,1.2271,1.2273,1.2274,0,0,0,0,0,1.2321,1.2323,1.2319,1.2318,1.2307,1.2303,1.2301,1.2293,1.2288,1.2289,1.2282,1.2275,1.2267,1.2264,1.2263,1.2266,1.2257,1.2258,1.2258,1.2271,1.2273,1.2274,0,0,0,0,0,0,1.2334,1.2322,1.2317,1.2316,1.2311,1.23,1.2301,1.2295,1.229,1.2289,1.2278,1.2276,1.2275,1.227,1.2268,1.2268,1.2261,1.2261,1.2271,1.2273,1.2274,1.2275,1.2257,0,0,0,0,0,1.2336,1.2334,1.2323,1.2324,1.2321,1.2312,1.2309,1.2303,1.2297,1.2294,1.2287,1.2281,1.2277,1.2275,1.227,1.2271,1.2269,1.2272,1.2273,1.2275,1.2275,1.2276,1.2277,1.2261,1.2261,1.2261,0,0,1.2342,1.2335,1.2334,1.2326,1.2321,1.2319,1.231,1.2307,1.2305,1.2294,1.2291,1.2286,1.2279,1.2278,1.2277,1.2274,1.2279,1.2275,1.2277,1.2276,1.2277,1.2278,1.228,1.2261,1.2261,1.2261,0,0,1.2351,1.2345,1.2345,1.234,1.2333,1.2327,1.2327,1.2318,1.2314,1.2311,1.2303,1.2301,1.2294,1.2289,1.2286,1.2294,1.2288,1.2293,1.2301,1.2301,1.2303,1.2304,1.2307,1.2309,1.2293,1.2293,1.2293,0,1.2358,1.2354,1.2346,1.2344,1.2341,1.2331,1.2331,1.2327,1.2318,1.2317,1.2313,1.2305,1.2299,1.2298,1.23,1.2297,1.2297,1.2294,1.2303,1.2304,1.2305,1.2308,1.231,1.2294,1.2294,1.2294,1.2294,0,1.2364,1.2362,1.2363,1.2355,1.2353,1.2352,1.2343,1.2341,1.2336,1.233,1.2328,1.2321,1.2316,1.2315,1.2309,1.2313,1.2311,1.2305,1.2298,1.2308,1.2311,1.2312,1.2295,1.2295,1.2295,1.2295,0,0,1.238,1.2369,1.2369,1.2366,1.2358,1.2356,1.2355,1.235,1.2349,1.2343,1.2343,1.2338,1.2333,1.2329,1.2323,1.2324,1.2331,1.2318,1.2318,1.2321,1.2336,1.234,1.2342,1.2327,1.2327,1.2327,1.2337,0,1.2387,1.2385,1.2378,1.2378,1.2376,1.2367,1.2366,1.2361,1.2356,1.2354,1.2348,1.2345,1.2338,1.2336,1.2337,1.233,1.2334,1.233,1.2326,1.2326,1.2329,1.2343,1.2347,1.2356,1.2338,1.2338,1.2338,0,1.2396,1.2392,1.2392,1.2385,1.2384,1.2383,1.2378,1.2376,1.237,1.2367,1.2363,1.2357,1.2355,1.2349,1.2348,1.2345,1.2343,1.234,1.234,1.234,1.2333,1.2343,1.2359,1.236,1.2339,1.2339,1.2339,0,1.2408,1.2402,1.2402,1.24,1.2391,1.2391,1.2387,1.2381,1.2379,1.2375,1.2374,1.2369,1.2367,1.2364,1.2357,1.2353,1.2356,1.2349,1.2353,1.2354,1.2354,1.2354,1.237,1.2353,1.2353,1.2353,1.2353,0,1.2417,1.2418,1.2407,1.2407,1.2408,1.2399,1.24,1.2396,1.2391,1.239,1.2381,1.2381,1.2371,1.2369,1.2363,1.2363,1.2362,1.2359,1.2357,1.236,1.236,1.2359,1.2358,1.2353,1.2353,1.2353,1.2353,0,1.243,1.2423,1.2423,1.2415,1.2413,1.2414,1.2407,1.2407,1.2401,1.24,1.2399,1.2391,1.2388,1.2381,1.2376,1.2372,1.2374,1.2371,1.2376,1.2375,1.238,1.238,1.2395,1.2397,1.2379,1.2379,1.2379,0,1.2437,1.2437,1.243,1.2429,1.2425,1.2424,1.2422,1.2414,1.2412,1.2406,1.2407,1.2404,1.2401,1.2397,1.2391,1.2387,1.2384,1.239,1.2384,1.2386,1.2385,1.2385,1.2385,1.2391,1.2392,1.2392,1.2392,0,1.2449,1.2446,1.2444,1.244,1.2438,1.2435,1.2432,1.2431,1.2422,1.2421,1.2419,1.2416,1.2412,1.2409,1.2405,1.2401,1.2395,1.2394,1.2395,1.2397,1.2401,1.2399,1.238,1.2394,1.2394,1.2393,1.2393,1.2393,1.246,1.246,1.2455,1.2453,1.2449,1.2446,1.2446,1.2441,1.2439,1.2435,1.2431,1.2429,1.2424,1.2418,1.2415,1.2413,1.241,1.2411,1.2411,1.2412,1.2413,1.2401,1.2412,1.2412,1.2412,1.2412,1.2412,0,1.2472,1.2469,1.2467,1.2462,1.2461,1.2456,1.2452,1.2451,1.245,1.2446,1.2443,1.2441,1.2438,1.2432,1.2429,1.2429,1.2427,1.2429,1.2429,1.2428,1.2416,1.2416,1.2431,1.2431,1.2431,1.2431,1.2431,1.2431,1.2478,1.2479,1.2475,1.2474,1.247,1.2469,1.2467,1.2465,1.2462,1.246,1.2458,1.2454,1.2449,1.2446,1.2444,1.2442,1.2441,1.2445,1.2442,1.2431,1.2429,1.2427,1.2427,1.2444,1.2444,1.2454,1.2454,1.2454]}]]